This is the latest recevied weather packets stored in our database for station/object TG8ARF-18. If no packets are shown the sender has not sent any weather packets the latest 10 day(s).
| Time | Temp. | Humidity | Pressure | Rain* | Wind** | Luminosity | Snow |
|---|---|---|---|---|---|---|---|
| 1777497680 | 20.56° C | 73% | 1012 hPa | 0 mm | - | - | - |
| 1777497079 | 19.44° C | 73% | 1012 hPa | 0 mm | - | - | - |
| 1777496479 | 21.67° C | 67% | 1012 hPa | 0 mm | - | - | - |
| 1777495878 | 20.56° C | 67% | 1012 hPa | 0 mm | - | - | - |
| 1777495278 | 19.44° C | 67% | 1012 hPa | 0 mm | - | - | - |
| 1777494677 | 26.67° C | 66% | 1012 hPa | 0 mm | - | - | - |
| 1777494076 | 26.67° C | 69% | 1012 hPa | 0 mm | - | - | - |
| 1777493476 | 22.22° C | 62% | 1012 hPa | 0 mm | - | - | - |
| 1777492875 | 21.11° C | 62% | 1012 hPa | 0 mm | - | - | - |
| 1777492274 | 20° C | 62% | 1012 hPa | 0 mm | - | - | - |
| 1777491674 | 26.67° C | 59% | 1012 hPa | 0 mm | - | - | - |
| 1777491073 | 23.33° C | 63% | 1012 hPa | 0 mm | - | - | - |
| 1777490473 | 22.22° C | 63% | 1013 hPa | 0 mm | - | - | - |
| 1777489872 | 21.11° C | 63% | 1013 hPa | 0 mm | - | - | - |
| 1777489272 | 26.67° C | 58% | 1013 hPa | 0 mm | - | - | - |
| 1777488671 | 26.11° C | 58% | 1013 hPa | 0 mm | - | - | - |
| 1777488071 | 25.56° C | 58% | 1013 hPa | 0 mm | - | - | - |
| 1777487470 | 23.33° C | 64% | 1014 hPa | 0 mm | - | - | - |
| 1777486869 | 23.33° C | 64% | 1014 hPa | 0 mm | - | - | - |
| 1777486269 | 22.22° C | 64% | 1014 hPa | 0 mm | - | - | - |
| 1777485668 | 23.33° C | 58% | 1014 hPa | 0 mm | - | - | - |
| 1777485068 | 22.22° C | 58% | 1014 hPa | 0 mm | - | - | - |
| 1777484467 | 23.33° C | 63% | 1014 hPa | 0 mm | - | - | - |
| 1777483867 | 22.22° C | 63% | 1014 hPa | 0 mm | - | - | - |
| 1777483266 | 21.11° C | 63% | 1015 hPa | 0 mm | - | - | - |
* Rain latest hour (hover to see other rain measurements)
** Current wind speed in m/s (hover to see current wind gust speed)